Location: Altavilla Irpina
(41.0000°N, 14.7833°E)
Time: 07:06:13
(UTC+00:00)

USA 234 - Pass Details

Date: 19 May 2025
Orbit: 1097 x 1111 km, 123.0° (Epoch: 19 June)

Event Time Altitude Azimuth Distance (km) Brightness Sun altitude
Rises 19:05:09 0° 49° (NE) 3,927 6.0 -8.7°
Reaches altitude 10° 19:07:41 10° 53° (NE) 2,968 5.4 -9.1°
Maximum altitude 19:14:10 62° 133° (SE) 1,236 3.3 -10.1°
Drops below altitude 10° 19:20:38 10° 213° (SSW) 2,963 5.5 -11.0°
Sets 19:23:09 0° 217° (SW) 3,920 6.1 -11.4°
